星链-11094 [DTC] (STARLINK-11094 [DTC] )

导读 | 星芒AI

STARLINK-11094 [DTC] 是SpaceX星链(Starlink)卫星互联网项目中的一颗低轨通信卫星。该卫星属于DTC(Direct-to-Cell)系列,旨在为用户提供直接通过卫星的蜂窝网络连接,无需依赖地面基站。它运行在约550公里高的近地轨道,支持高速、低延迟的互联网服务,主要服务于偏远地区和传统网络难以覆盖的区域。该卫星采用先进的推进和通信技术,是SpaceX构建全球宽带网络的重要组成部分。

基本信息
目录编号:
59714
目录名称:
STARLINK-11094
国际标识:
2024-088G
轨道中心:
EARTH
卫星名称:
星链-11094 [DTC]
卫星全名:
星链-11094 [DTC] (STARLINK-11094 [DTC] )
卫星状态:
在轨 (已飞行537 天)
发射日期:
2024-05-10 UTC
国别 :
美国 (US)
星等 :
--
轨道信息
数据来源 国际轨道数据
星历时间: 2025-10-28T11:23:12+0800
1天前
查看轨道信息
半长轴: 6737.879km
偏心率: 0.0001458
轨道倾角: 53.157°
近地点辐角 86.223°
升交点赤经 259.719°
平近点角 273.895°
近地点: 358.761km
远地点: 360.727km
周期: 91.737分钟
每日圈数: 15.697049
详细信息
固有亮度:
5
最大亮度:
0.6
卫星平台:
Starlink v2.0 mini
覆盖范围:
全球
运营商:
太空探索技术公司
运营商所在国:
美国
制造商(研发单位):
太空探索技术公司
制造商所在国:
美国
使用方式:
暂无
卫星简介
星链(Starlink)计划是由太空探索技术公司(SpaceX)提出的一个巨型低轨卫星互联网星座项目,计划在2019年至2024年间在太空搭建由约1.2万颗卫星组成的“星链”网络,其中1584颗将部署在地球上空550千米处的近地轨道,并从2020年开始工作。该卫星仍在工作。
2D轨道图
3D轨道图
轨道高度分析图
轨道倾角分析图
轨道综合分析图
查看轨道综合分析图